DW4839 Weather Reports


Display with metric or nautical units.
time (UTC)temp
F
wind
direction
speed
MPH
gust
MPH
rain 1hr
in
rain 24hr
in
rain mn
in
humidity
%
barometer
mb
20260505180056 53 267 3.0 5.0 0.00 0.00 0.00 86 1016.8
20260505174550 53 0 1.0 5.0 0.00 0.00 0.00 87 1016.8
20260505173053 53 208 2.0 5.0 0.00 0.00 0.00 87 1016.6
20260505171553 52 264 1.0 3.0 0.00 0.00 0.00 87 1016.5
20260505170108 52 275 2.0 4.0 0.00 0.00 0.00 88 1016.5
20260505164549 53 226 1.0 5.0 0.00 0.00 0.00 87 1016.4
20260505163102 52 187 3.0 7.0 0.00 0.00 0.00 87 1016.4
20260505161552 52 228 2.0 3.0 0.00 0.00 0.00 88 1016.2
20260505153104 51 173 2.0 5.0 0.00 0.00 0.00 90 1016.1
20260505151554 51 236 2.0 7.0 0.00 0.00 0.00 90 1016.1
20260505150112 51 192 2.0 7.0 0.00 0.00 0.00 90 1016.1
20260505140104 51 202 2.0 7.0 0.00 0.00 0.00 90 1015.4
20260505124548 50 169 3.0 6.0 0.00 0.00 0.00 90 1015.1
20260505123106 50 173 3.0 7.0 0.00 0.00 0.00 89 1014.9
20260505121553 51 210 3.0 6.0 0.00 0.00 0.00 89 1015.0
20260505120053 51 194 1.0 4.0 0.00 0.00 0.00 89 1015.0
20260505114600 50 212 2.0 4.0 0.00 0.00 0.00 89 1014.8
20260505113054 51 195 3.0 6.0 0.00 0.00 0.00 89 1014.9
20260505111559 51 211 3.0 6.0 0.00 0.00 0.00 88 1014.9
20260505101553 51 215 2.0 6.0 0.00 0.00 0.00 88 1014.4
20260505100054 51 198 2.0 8.0 0.00 0.00 0.00 88 1014.4
20260505094552 51 190 2.0 7.0 0.00 0.00 0.00 89 1014.4
20260505093050 50 184 4.0 6.0 0.00 0.00 0.00 89 1014.3
20260505091551 50 194 3.0 6.0 0.00 0.00 0.00 88 1014.2
20260505090106 50 200 2.0 6.0 0.00 0.00 0.00 88 1014.0
20260505084548 51 216 2.0 6.0 0.00 0.00 0.00 88 1014.0
20260505083046 51 213 4.0 8.0 0.00 0.00 0.00 87 1014.1
20260505081552 52 202 2.0 5.0 0.00 0.00 0.00 86 1013.8
20260505080053 52 192 2.0 5.0 0.00 0.00 0.00 86 1013.8
20260505074548 52 213 2.0 6.0 0.00 0.00 0.00 85 1013.8
20260505073057 52 177 3.0 8.0 0.00 0.00 0.00 85 1013.5
20260505071555 53 211 5.0 10.0 0.00 0.00 0.00 84 1013.4
20260505070059 53 207 5.0 9.0 0.00 0.00 0.00 84 1013.4
20260505064556 54 214 5.0 10.0 0.00 0.00 0.00 84 1013.1
20260505063102 54 189 5.0 10.0 0.00 0.00 0.00 83 1013.0
20260505061550 55 197 5.0 8.0 0.00 0.00 0.00 82 1012.9
20260505060057 56 205 4.0 11.0 0.00 0.00 0.00 81 1012.7
20260505054557 57 217 3.0 7.0 0.00 0.00 0.00 79 1012.7
20260505053056 58 209 3.0 6.0 0.00 0.00 0.00 78 1012.8
20260505051551 59 214 3.0 6.0 0.00 0.00 0.00 78 1012.6
20260505050126 60 207 1.0 3.0 0.00 0.00 0.00 78 1012.5
20260505041604 62 202 3.0 7.0 0.00 0.00 0.00 75 1011.8
20260505040101 63 219 3.0 7.0 0.00 0.00 0.00 75 1011.6
20260505034551 63 204 4.0 8.0 0.00 0.00 0.00 76 1011.4
20260505033051 64 208 5.0 14.0 0.00 0.00 0.00 75 1011.2
20260505031559 64 221 4.0 8.0 0.00 0.00 0.00 75 1011.1
20260505030053 64 210 4.0 10.0 0.00 0.00 0.00 74 1011.0
20260505024555 65 186 4.0 12.0 0.00 0.00 0.00 73 1011.0
20260505023054 65 204 4.0 9.0 0.00 0.00 0.00 72 1010.9
20260505021555 66 212 4.0 11.0 0.00 0.00 0.00 71 1010.9
20260505020053 66 213 5.0 9.0 0.00 0.00 0.00 70 1010.9
20260505014605 66 231 5.0 9.0 0.00 0.00 0.00 70 1010.8
20260505013052 67 211 5.0 10.0 0.00 0.00 0.00 69 1011.0
20260505011553 67 241 5.0 10.0 0.00 0.00 0.00 68 1011.2
20260505010057 68 205 5.0 10.0 0.00 0.00 0.00 67 1011.2
20260505004555 69 200 3.0 12.0 0.00 0.00 0.00 66 1011.3
20260505003106 68 194 5.0 11.0 0.00 0.00 0.00 66 1011.4
20260505001611 69 238 4.0 10.0 0.00 0.00 0.00 65 1011.4
20260505000131 68 177 4.0 13.0 0.00 0.00 0.00 64 1011.5
20260504234610 69 188 4.0 13.0 0.00 0.00 0.00 66 1011.4
20260504233106 68 167 5.0 14.0 0.00 0.00 0.00 66 1011.5
20260504231553 68 236 5.0 12.0 0.00 0.00 0.00 65 1011.7
20260504230051 68 229 6.0 12.0 0.00 0.00 0.00 65 1011.8
20260504224606 67 171 4.0 10.0 0.00 0.00 0.00 66 1011.9
20260504223051 67 192 3.0 9.0 0.00 0.00 0.00 67 1012.0
20260504221555 67 180 5.0 11.0 0.00 0.00 0.00 68 1012.1
20260504220058 66 186 7.0 11.0 0.00 0.00 0.00 68 1012.2
20260504214555 66 226 7.0 13.0 0.00 0.00 0.00 68 1012.3
20260504213112 65 175 4.0 9.0 0.00 0.00 0.00 69 1012.6
20260504211549 64 200 6.0 13.0 0.00 0.00 0.00 73 1012.8
20260504210053 63 228 5.0 11.0 0.00 0.00 0.00 71 1013.1
20260504204557 63 206 2.0 12.0 0.00 0.00 0.00 73 1013.3
20260504203112 62 150 5.0 10.0 0.00 0.00 0.00 71 1013.3
20260504201551 61 239 5.0 11.0 0.00 0.00 0.00 73 1013.5
20260504200053 61 200 3.0 9.0 0.00 0.00 0.00 74 1013.5
20260504194601 60 133 4.0 10.0 0.00 0.00 0.00 79 1013.6
20260504193100 59 223 5.0 14.0 0.00 0.00 0.00 76 1013.5
20260504191552 59 230 5.0 12.0 0.00 0.00 0.00 77 1013.6
20260504190114 59 190 4.0 11.0 0.00 0.00 0.00 79 1013.7
20260504184559 57 188 4.0 12.0 0.00 0.00 0.00 80 1013.9
20260504183049 57 227 5.0 10.0 0.00 0.00 0.00 81 1013.8
20260504181550 56 164 5.0 11.0 0.00 0.00 0.00 82 1013.8